Weather History for KTVL - June, 2014

Change the Weather History Date:

Wednesday, June 18, 2014

  Actual Average Record
Temperature  
Mean Temperature 53 °F 55 °F  
Max Temperature 73 °F 73 °F 86 °F (1985)
Min Temperature 32 °F 38 °F 27 °F (1994)
Degree Days  
Heating Degree Days 12 10  
Month to date heating degree days 143 212  
Since 1 June heating degree days 143 212  
Since 1 July heating degree days 6638 7634  
Cooling Degree Days 0 0  
Month to date cooling degree days 0 0  
Year to date cooling degree days 0 0  
Since 1 June cooling degree days 0 0  
Growing Degree Days 2 (Base 50)    
Moisture  
Dew Point 25 °F    
Average Humidity 41    
Maximum Humidity 75    
Minimum Humidity 7    
Precipitation  
Precipitation 0.00 in - 0.50 in (1969)
Month to date precipitation T  
Year to date precipitation 12.40  
Sea Level Pressure  
Sea Level Pressure 30.01 in    
Wind  
Wind Speed 4 mph (SSW)    
Max Wind Speed 13 mph    
Max Gust Speed 17 mph    
Visibility 10 miles    
Events      
T = Trace of Precipitation, MM = Missing Value Source: NWS Daily Summary

Daily Weather History Graph

Daily Weather History Graph

Search for Another Location

Airport or City:

Trip Planner

Search our weather history database for the weather conditions in past years. The results will help you decide how hot, cold, wet, or windy it might be!

Date:

Astronomy

Jun. 18, 2014 Rise Set
Actual Time 5:34 AM PDT 8:28 PM PDT
Civil Twilight 5:02 AM PDT 9:00 PM PDT
Nautical Twilight 4:21 AM PDT 9:40 PM PDT
Astronomical Twilight 3:35 AM PDT 10:27 PM PDT
Moon 12:02 AM PDT (6/18) 12:00 PM PDT (6/18)
Length of Visible Light 15h 57m
Length of Day
14h 53m
Waning Gibbous, 61% of the Moon is Illuminated
Jun 18
Waning Gibbous
Jun 19
Last Quarter
Jun 27
New
Jul 5
First Quarter
Jul 12
Full

Hourly Weather History & Observations

Time (PDT) Temp. Windchill Dew Point Humidity Pressure Visibility Wind Dir Wind Speed Gust Speed Precip Events Conditions
12:53 AM 48.9 °F - 25.0 °F 39% 29.99 in 10.0 mi Variable 4.6 mph - N/A   Clear
1:53 AM 41.0 °F - 30.0 °F 65% 30.00 in 10.0 mi Calm Calm - N/A   Clear
2:53 AM 37.0 °F - 28.9 °F 73% 30.01 in 10.0 mi Calm Calm - N/A   Clear
3:53 AM 34.0 °F 29.8 °F 27.0 °F 75% 30.01 in 10.0 mi South 4.6 mph - N/A   Clear
4:53 AM 33.1 °F 28.7 °F 26.1 °F 75% 30.02 in 10.0 mi South 4.6 mph - N/A   Clear
5:53 AM 32.0 °F 27.5 °F 24.1 °F 73% 30.03 in 10.0 mi South 4.6 mph - N/A   Clear
6:53 AM 36.0 °F 31.1 °F 27.0 °F 70% 30.05 in 10.0 mi South 5.8 mph - N/A   Clear
7:53 AM 46.9 °F - 27.0 °F 46% 30.03 in 10.0 mi Calm Calm - N/A   Clear
8:53 AM 54.0 °F - 23.0 °F 30% 30.03 in 10.0 mi Calm Calm - N/A   Clear
9:53 AM 60.1 °F - 25.0 °F 26% 30.01 in 10.0 mi NE 6.9 mph - N/A   Clear
10:53 AM 62.1 °F - 21.9 °F 21% 29.99 in 10.0 mi Calm Calm - N/A   Clear
11:53 AM 64.9 °F - 27.0 °F 24% 29.99 in 10.0 mi Variable 6.9 mph - N/A   Clear
12:53 PM 66.0 °F - 30.9 °F 27% 29.98 in 10.0 mi Variable 4.6 mph - N/A   Clear
1:53 PM 69.1 °F - 19.9 °F 15% 29.99 in 10.0 mi NNE 10.4 mph - N/A   Clear
2:53 PM 71.1 °F - 3.9 °F 7% 29.99 in 10.0 mi Variable 5.8 mph - N/A   Clear
3:53 PM 73.0 °F - 12.9 °F 10% 29.99 in 10.0 mi NNE 8.1 mph - N/A   Clear
4:53 PM 72.0 °F - 25.0 °F 17% 29.99 in 10.0 mi Variable 6.9 mph - N/A   Clear
5:53 PM 70.0 °F - 27.0 °F 20% 30.01 in 10.0 mi WSW 4.6 mph - N/A   Clear
6:53 PM 66.0 °F - 26.1 °F 22% 30.02 in 10.0 mi SSW 10.4 mph - N/A   Clear
7:53 PM 62.1 °F - 28.0 °F 28% 30.02 in 10.0 mi SSW 4.6 mph - N/A   Clear
8:53 PM 55.9 °F - 28.9 °F 36% 30.03 in 10.0 mi SSW 3.5 mph - N/A   Clear
9:53 PM 53.1 °F - 28.0 °F 38% 30.04 in 10.0 mi SW 3.5 mph - N/A   Clear
10:53 PM 46.9 °F - 28.9 °F 50% 30.06 in 10.0 mi Calm Calm - N/A   Clear
11:53 PM 44.1 °F - 28.9 °F 55% 30.06 in 10.0 mi Calm Calm - N/A   Clear